Location: Newark
(50.0306°N, 2.3272°E)
Time: 01:00:37
(UTC+00:00)

A-11 Canister half - Pass Details

Date: 13 December 2019
Orbit: 1525 x 1684 km, 47.3° (Epoch: 20 January)

Event Time Altitude Azimuth Distance (km) Brightness Sun altitude
Rises 12:13:07 0° 289° (WNW) 4,931 11.5 16.6°
Reaches altitude 10° 12:16:59 10° 278° (W) 3,927 11.2 16.5°
Maximum altitude 12:24:38 26° 228° (SW) 2,835 11.4 16.3°
Drops below altitude 10° 12:32:08 10° 177° (S) 3,829 13.0 16.1°
Sets 12:35:52 0° 165° (SSE) 4,785 12.7 15.9°
